This is the latest recevied weather packets stored in our database for station/object N0KWA. If no packets are shown the sender has not sent any weather packets the latest 10 day(s).
| Time | Temp. | Humidity | Pressure | Rain* | Wind** | Luminosity | Snow |
|---|---|---|---|---|---|---|---|
| 1778103145 | 27.78° C | 88% | 1013.2 hPa | 0 mm | - | 6 W/m² | - |
| 1778102843 | 27.78° C | 87% | 1013.6 hPa | 0 mm | - | 12 W/m² | - |
| 1778102538 | 27.78° C | 87% | 1013.5 hPa | 0 mm | - | 11 W/m² | - |
| 1778102234 | 27.78° C | 86% | 1013.5 hPa | 0 mm | - | 19 W/m² | - |
| 1778101930 | 27.78° C | 85% | 1013.3 hPa | 0 mm | - | 19 W/m² | - |
| 1778101627 | 28.33° C | 84% | 1013.5 hPa | 0 mm | - | 22 W/m² | - |
| 1778101325 | 28.33° C | 84% | 1013.5 hPa | 0 mm | - | 19 W/m² | - |
| 1778101022 | 28.33° C | 85% | 1013.4 hPa | 0 mm | - | 30 W/m² | - |
| 1778100722 | 27.78° C | 85% | 1013.4 hPa | 0 mm | - | 80 W/m² | - |
| 1778100420 | 27.78° C | 84% | 1013.7 hPa | 0 mm | - | 28 W/m² | - |
| 1778100116 | 28.33° C | 84% | 1013.6 hPa | 0 mm | - | 25 W/m² | - |
| 1778099815 | 28.33° C | 85% | 1013.6 hPa | 0 mm | - | 30 W/m² | - |
| 1778099512 | 28.33° C | 85% | 1013.8 hPa | 0 mm | - | 21 W/m² | - |
| 1778099210 | 28.33° C | 85% | 1013.7 hPa | 0 mm | - | 36 W/m² | - |
| 1778098905 | 28.33° C | 86% | 1013.8 hPa | 0 mm | - | 40 W/m² | - |
| 1778098602 | 28.33° C | 87% | 1013.9 hPa | 0 mm | - | 39 W/m² | - |
| 1778098299 | 28.33° C | 87% | 1014 hPa | 0 mm | - | 32 W/m² | - |
| 1778097995 | 28.33° C | 87% | 1013.9 hPa | 0 mm | - | 34 W/m² | - |
| 1778097692 | 28.33° C | 87% | 1013.9 hPa | 0 mm | - | 35 W/m² | - |
| 1778097389 | 28.33° C | 87% | 1014.4 hPa | 0 mm | - | 42 W/m² | - |
| 1778097085 | 28.33° C | 86% | 1014.2 hPa | 0 mm | - | 27 W/m² | - |
| 1778096783 | 28.33° C | 86% | 1014.4 hPa | 0 mm | - | 55 W/m² | - |
| 1778096479 | 27.78° C | 86% | 1014.7 hPa | 0 mm | - | 67 W/m² | - |
| 1778096177 | 27.78° C | 87% | 1014.6 hPa | 0 mm | - | 35 W/m² | - |
| 1778095874 | 28.33° C | 86% | 1014.7 hPa | 0 mm | - | 31 W/m² | - |
* Rain latest hour (hover to see other rain measurements)
** Current wind speed in m/s (hover to see current wind gust speed)